Scottsbluff, NE

2:29 AM MDT on October 23, 2019 (GMT -0600)
Heilig

Weather History for KBFF - August, 2019

Change the Weather History Date:

Tuesday, August 27, 2019

  Actual Average Record
Temperature  
Mean Temperature 65 °F -  
Max Temperature 77 °F 85 °F 106 °F (1898)
Min Temperature 53 °F 54 °F 35 °F (1940)
Growing Degree Days 15 (Base 50)    
Moisture  
Dew Point 46 °F    
Average Humidity 55    
Maximum Humidity 86    
Minimum Humidity 23    
Precipitation  
Precipitation 0.00 in - - ()
Sea Level Pressure  
Sea Level Pressure 30.10 in    
Wind  
Wind Speed 5 mph (NW)    
Max Wind Speed 14 mph    
Max Gust Speed 20 mph    
Visibility 10 miles    
Events      
Averages and records for this station are not official NWS values.
T = Trace of Precipitation, MM = Missing Value Source: NWS Daily Summary

Daily Weather History Graph

Daily Weather History Graph

Search for Another Location

Airport or City:

Astronomy

Aug. 27, 2019 Rise Set
Actual Time 6:14 AM MDT 7:36 PM MDT
Civil Twilight 5:45 AM MDT 8:05 PM MDT
Nautical Twilight 5:10 AM MDT 8:39 PM MDT
Astronomical Twilight 4:33 AM MDT 9:16 PM MDT
Moon 2:38 AM MDT (8/27) 6:02 PM MDT (8/27)
Length of Visible Light 14h 19m
Length of Day
13h 21m
Waning Crescent, 10% of the Moon is Illuminated
Aug 27
Waning Crescent
Aug 30
New
Sep 5
First Quarter
Sep 13
Full
Sep 21
Last Quarter

Hourly Weather History & Observations

Time (MDT) Temp. Dew Point Humidity Pressure Visibility Wind Dir Wind Speed Gust Speed Precip Events Conditions
12:53 AM 52.0 °F 46.0 °F 80% 30.06 in 10.0 mi Calm Calm - N/A   Scattered Clouds
1:53 AM 55.9 °F 48.9 °F 77% 30.05 in 10.0 mi WNW 4.6 mph - N/A   Overcast
2:53 AM 55.0 °F 46.9 °F 74% 30.06 in 10.0 mi NNW 8.1 mph - N/A   Overcast
3:53 AM 55.0 °F 48.0 °F 77% 30.06 in 10.0 mi WNW 5.8 mph - N/A   Overcast
4:53 AM 53.1 °F 48.0 °F 83% 30.08 in 10.0 mi NW 8.1 mph - N/A   Overcast
5:53 AM 53.1 °F 48.9 °F 86% 30.10 in 10.0 mi NW 4.6 mph - N/A   Overcast
6:53 AM 55.0 °F 48.9 °F 80% 30.13 in 10.0 mi West 4.6 mph - N/A   Overcast
7:53 AM 57.0 °F 46.0 °F 67% 30.17 in 10.0 mi WNW 6.9 mph - N/A   Mostly Cloudy
8:48 AM 62.6 °F 41.0 °F 45% 30.26 in 10.0 mi North 10.4 mph - N/A   Scattered Clouds
8:53 AM 63.0 °F 42.1 °F 46% 30.18 in 10.0 mi North 10.4 mph - N/A   Scattered Clouds
9:53 AM 66.0 °F 42.1 °F 42% 30.18 in 10.0 mi North 13.8 mph 19.6 mph N/A   Clear
10:53 AM 66.9 °F 41.0 °F 39% 30.18 in 10.0 mi NNE 5.8 mph 17.3 mph N/A   Partly Cloudy
11:53 AM 70.0 °F 41.0 °F 35% 30.16 in 10.0 mi NNW 5.8 mph - N/A   Clear
12:53 PM 72.0 °F 42.1 °F 34% 30.14 in 10.0 mi WNW 5.8 mph - N/A   Clear
1:53 PM 73.9 °F 45.0 °F 35% 30.10 in 10.0 mi West 10.4 mph - N/A   Clear
2:53 PM 73.9 °F 45.0 °F 35% 30.08 in 10.0 mi WNW 10.4 mph - N/A   Clear
3:53 PM 75.0 °F 45.0 °F 34% 30.06 in 10.0 mi WNW 5.8 mph - N/A   Clear
4:53 PM 75.0 °F 45.0 °F 34% 30.05 in 10.0 mi Variable 3.5 mph - N/A   Clear
5:53 PM 75.0 °F 45.0 °F 34% 30.05 in 10.0 mi WNW 4.6 mph - N/A   Clear
6:53 PM 72.0 °F 48.0 °F 43% 30.05 in 10.0 mi WSW 5.8 mph - N/A   Clear
7:53 PM 68.0 °F 50.0 °F 52% 30.06 in 10.0 mi SSW 3.5 mph - N/A   Clear
8:53 PM 60.1 °F 51.1 °F 72% 30.09 in 10.0 mi East 6.9 mph - N/A   Clear
9:53 PM 57.9 °F 46.9 °F 67% 30.09 in 10.0 mi East 4.6 mph - N/A   Clear
10:53 PM 57.0 °F 45.0 °F 64% 30.09 in 10.0 mi ESE 3.5 mph - N/A   Clear
11:53 PM 54.0 °F 46.0 °F 75% 30.09 in 10.0 mi East 8.1 mph - N/A   Clear